owner,sensor,date,latitude,longitude,vertical_datum,wind_speed,wind_to_direction,wind_speed_of_gust,qcFlag 
TCOON,ioos:station:TCOON:524:1,2019-10-01T00:24:00Z,29.8672,-93.9310,0.0,3.7,113.0,5.8,'11111222,11111222,11111222' 
TCOON,ioos:station:TCOON:524:1,2019-10-01T01:24:00Z,29.8672,-93.9310,0.0,2.6,116.0,4.0,'11111222,11111222,11111222' 
TCOON,ioos:station:TCOON:524:1,2019-10-01T02:24:00Z,29.8672,-93.9310,0.0,2.0,111.0,3.8,'11111222,11111222,11111222' 
TCOON,ioos:station:TCOON:524:1,2019-10-01T03:24:00Z,29.8672,-93.9310,0.0,3.1,119.0,5.4,'11111222,11111222,11111222' 
TCOON,ioos:station:TCOON:524:1,2019-10-01T04:24:00Z,29.8672,-93.9310,0.0,2.9,115.0,4.8,'11111222,11111222,11111222' 
TCOON,ioos:station:TCOON:524:1,2019-10-01T05:24:00Z,29.8672,-93.9310,0.0,3.3,119.0,6.3,'11111222,11111222,11111222' 
TCOON,ioos:station:TCOON:524:1,2019-10-01T06:30:00Z,29.8672,-93.9310,0.0,3.3,122.0,5.1,'11111222,11111222,11111222' 
TCOON,ioos:station:TCOON:524:1,2019-10-01T07:24:00Z,29.8672,-93.9310,0.0,3.1,127.0,4.8,'11111222,11111222,11111222' 
TCOON,ioos:station:TCOON:524:1,2019-10-01T08:24:00Z,29.8672,-93.9310,0.0,3.0,129.0,5.2,'11111222,11111222,11111222' 
TCOON,ioos:station:TCOON:524:1,2019-10-01T09:24:00Z,29.8672,-93.9310,0.0,3.5,129.0,5.5,'11111222,11111222,11111222' 
TCOON,ioos:station:TCOON:524:1,2019-10-01T10:24:00Z,29.8672,-93.9310,0.0,3.3,128.0,5.1,'11111222,11111222,11111222' 
TCOON,ioos:station:TCOON:524:1,2019-10-01T11:24:00Z,29.8672,-93.9310,0.0,2.7,125.0,4.0,'11111222,11111222,11111222' 
TCOON,ioos:station:TCOON:524:1,2019-10-01T12:24:00Z,29.8672,-93.9310,0.0,1.8,142.0,2.3,'11111222,11111222,11111222' 
TCOON,ioos:station:TCOON:524:1,2019-10-01T13:24:00Z,29.8672,-93.9310,0.0,1.8,113.0,3.0,'11111222,11111222,11111222' 
TCOON,ioos:station:TCOON:524:1,2019-10-01T14:30:00Z,29.8672,-93.9310,0.0,3.0,106.0,4.1,'11111222,11111222,11111222' 
TCOON,ioos:station:TCOON:524:1,2019-10-01T15:24:00Z,29.8672,-93.9310,0.0,3.3,107.0,4.5,'11111222,11111222,11111222' 
TCOON,ioos:station:TCOON:524:1,2019-10-01T16:30:00Z,29.8672,-93.9310,0.0,3.4,110.0,4.9,'11111222,11111222,11111222' 
TCOON,ioos:station:TCOON:524:1,2019-10-01T17:30:00Z,29.8672,-93.9310,0.0,2.9,123.0,4.8,'11111222,11111222,11111222' 
TCOON,ioos:station:TCOON:524:1,2019-10-01T18:30:00Z,29.8672,-93.9310,0.0,4.0,103.0,5.2,'11111222,11111222,11111222' 
TCOON,ioos:station:TCOON:524:1,2019-10-01T19:24:00Z,29.8672,-93.9310,0.0,4.2,109.0,5.4,'11111222,11111222,11111222' 
TCOON,ioos:station:TCOON:524:1,2019-10-01T20:24:00Z,29.8672,-93.9310,0.0,3.5,104.0,5.8,'11111222,11111222,11111222' 
TCOON,ioos:station:TCOON:524:1,2019-10-01T21:30:00Z,29.8672,-93.9310,0.0,3.6,114.0,5.0,'11111222,11111222,11111222' 
TCOON,ioos:station:TCOON:524:1,2019-10-01T22:30:00Z,29.8672,-93.9310,0.0,3.1,120.0,5.5,'11111222,11111222,11111222' 
TCOON,ioos:station:TCOON:524:1,2019-10-01T23:24:00Z,29.8672,-93.9310,0.0,3.6,125.0,4.9,'11111222,11111222,11111222' 
TCOON,ioos:station:TCOON:524:1,2019-10-02T00:24:00Z,29.8672,-93.9310,0.0,2.7,117.0,4.3,'11111222,11111222,11111222' 
TCOON,ioos:station:TCOON:524:1,2019-10-02T01:24:00Z,29.8672,-93.9310,0.0,2.2,116.0,4.0,'11111222,11111222,11111222' 
TCOON,ioos:station:TCOON:524:1,2019-10-02T02:24:00Z,29.8672,-93.9310,0.0,2.3,126.0,3.3,'11111222,11111222,11111222' 
TCOON,ioos:station:TCOON:524:1,2019-10-02T03:24:00Z,29.8672,-93.9310,0.0,2.2,133.0,2.9,'11111222,11111222,11111222' 
TCOON,ioos:station:TCOON:524:1,2019-10-02T04:42:00Z,29.8672,-93.9310,0.0,1.9,141.0,2.8,'11111222,11111222,11111222' 
TCOON,ioos:station:TCOON:524:1,2019-10-02T05:30:00Z,29.8672,-93.9310,0.0,2.5,141.0,3.4,'11111222,11111222,11111222' 
TCOON,ioos:station:TCOON:524:1,2019-10-02T06:24:00Z,29.8672,-93.9310,0.0,1.7,127.0,3.0,'11111222,11111222,11111222' 
TCOON,ioos:station:TCOON:524:1,2019-10-02T07:24:00Z,29.8672,-93.9310,0.0,2.0,138.0,2.9,'11111222,11111222,11111222' 
TCOON,ioos:station:TCOON:524:1,2019-10-02T08:24:00Z,29.8672,-93.9310,0.0,1.7,137.0,2.9,'11111222,11111222,11111222' 
TCOON,ioos:station:TCOON:524:1,2019-10-02T09:24:00Z,29.8672,-93.9310,0.0,0.8,143.0,1.7,'11111222,11111222,11111222' 
TCOON,ioos:station:TCOON:524:1,2019-10-02T10:24:00Z,29.8672,-93.9310,0.0,0.7,133.0,0.8,'11111222,11111222,11111222' 
TCOON,ioos:station:TCOON:524:1,2019-10-02T11:24:00Z,29.8672,-93.9310,0.0,0.8,341.0,0.9,'11111222,11111222,11111222' 
TCOON,ioos:station:TCOON:524:1,2019-10-02T12:24:00Z,29.8672,-93.9310,0.0,1.0,359.0,1.2,'11111222,11111222,11111222' 
TCOON,ioos:station:TCOON:524:1,2019-10-02T13:30:00Z,29.8672,-93.9310,0.0,1.1,30.0,2.2,'11111222,11111222,11111222' 
TCOON,ioos:station:TCOON:524:1,2019-10-02T14:30:00Z,29.8672,-93.9310,0.0,1.6,36.0,3.4,'11111222,11111222,11111222' 
TCOON,ioos:station:TCOON:524:1,2019-10-02T15:30:00Z,29.8672,-93.9310,0.0,2.8,50.0,4.8,'11111222,11111222,11111222' 
TCOON,ioos:station:TCOON:524:1,2019-10-02T16:24:00Z,29.8672,-93.9310,0.0,1.7,45.0,4.4,'11111222,11111222,11111222' 
TCOON,ioos:station:TCOON:524:1,2019-10-02T17:30:00Z,29.8672,-93.9310,0.0,2.7,50.0,4.5,'11111222,11111222,11111222' 
TCOON,ioos:station:TCOON:524:1,2019-10-02T18:30:00Z,29.8672,-93.9310,0.0,2.0,62.0,4.6,'11111222,11111222,11111222' 
TCOON,ioos:station:TCOON:524:1,2019-10-02T19:30:00Z,29.8672,-93.9310,0.0,2.2,86.0,3.6,'11111222,11111222,11111222' 
TCOON,ioos:station:TCOON:524:1,2019-10-02T20:30:00Z,29.8672,-93.9310,0.0,2.6,120.0,4.9,'11111222,11111222,11111222' 
TCOON,ioos:station:TCOON:524:1,2019-10-02T21:30:00Z,29.8672,-93.9310,0.0,2.7,109.0,3.6,'11111222,11111222,11111222' 
TCOON,ioos:station:TCOON:524:1,2019-10-02T22:24:00Z,29.8672,-93.9310,0.0,3.0,134.0,4.5,'11111222,11111222,11111222' 
TCOON,ioos:station:TCOON:524:1,2019-10-02T23:24:00Z,29.8672,-93.9310,0.0,1.8,139.0,3.3,'11111222,11111222,11111222' 
TCOON,ioos:station:TCOON:524:1,2019-10-03T00:24:00Z,29.8672,-93.9310,0.0,1.5,163.0,2.1,'11111222,11111222,11111222' 
TCOON,ioos:station:TCOON:524:1,2019-10-03T01:24:00Z,29.8672,-93.9310,0.0,1.4,187.0,1.6,'11111222,11111222,11111222' 
TCOON,ioos:station:TCOON:524:1,2019-10-03T02:24:00Z,29.8672,-93.9310,0.0,1.5,182.0,2.1,'11111222,11111222,11111222' 
TCOON,ioos:station:TCOON:524:1,2019-10-03T03:24:00Z,29.8672,-93.9310,0.0,0.6,190.0,0.8,'11111222,11111222,11111222' 
TCOON,ioos:station:TCOON:524:1,2019-10-03T04:24:00Z,29.8672,-93.9310,0.0,0.4,148.0,0.9,'11111222,11111222,11111222' 
TCOON,ioos:station:TCOON:524:1,2019-10-03T05:24:00Z,29.8672,-93.9310,0.0,0.7,143.0,1.2,'11111222,11111222,11111222' 
TCOON,ioos:station:TCOON:524:1,2019-10-03T06:24:00Z,29.8672,-93.9310,0.0,0.3,161.0,1.3,'11111222,11111222,11111222' 
TCOON,ioos:station:TCOON:524:1,2019-10-03T07:24:00Z,29.8672,-93.9310,0.0,0.9,128.0,1.1,'11111222,11111222,11111222' 
TCOON,ioos:station:TCOON:524:1,2019-10-03T08:24:00Z,29.8672,-93.9310,0.0,0.2,338.0,0.5,'11111222,11111222,11111222' 
TCOON,ioos:station:TCOON:524:1,2019-10-03T09:24:00Z,29.8672,-93.9310,0.0,0.5,132.0,0.8,'11111222,11111222,11111222' 
TCOON,ioos:station:TCOON:524:1,2019-10-03T10:24:00Z,29.8672,-93.9310,0.0,1.3,356.0,1.5,'11111222,11111222,11111222' 
TCOON,ioos:station:TCOON:524:1,2019-10-03T11:24:00Z,29.8672,-93.9310,0.0,0.9,33.0,1.4,'11111222,11111222,11111222' 
TCOON,ioos:station:TCOON:524:1,2019-10-03T12:24:00Z,29.8672,-93.9310,0.0,2.3,8.0,2.8,'11111222,11111222,11111222' 
TCOON,ioos:station:TCOON:524:1,2019-10-03T13:30:00Z,29.8672,-93.9310,0.0,1.9,23.0,3.0,'11111222,11111222,11111222' 
TCOON,ioos:station:TCOON:524:1,2019-10-03T14:30:00Z,29.8672,-93.9310,0.0,1.3,45.0,2.2,'11111222,11111222,11111222' 
TCOON,ioos:station:TCOON:524:1,2019-10-03T15:30:00Z,29.8672,-93.9310,0.0,2.2,58.0,4.0,'11111222,11111222,11111222' 
TCOON,ioos:station:TCOON:524:1,2019-10-03T16:30:00Z,29.8672,-93.9310,0.0,2.8,66.0,4.5,'11111222,11111222,11111222' 
TCOON,ioos:station:TCOON:524:1,2019-10-03T17:30:00Z,29.8672,-93.9310,0.0,1.9,61.0,4.2,'11111222,11111222,11111222' 
TCOON,ioos:station:TCOON:524:1,2019-10-03T18:30:00Z,29.8672,-93.9310,0.0,2.7,77.0,4.7,'11111222,11111222,11111222' 
TCOON,ioos:station:TCOON:524:1,2019-10-03T19:30:00Z,29.8672,-93.9310,0.0,2.7,65.0,3.5,'11111222,11111222,11111222' 
TCOON,ioos:station:TCOON:524:1,2019-10-03T20:30:00Z,29.8672,-93.9310,0.0,3.2,88.0,4.1,'11111222,11111222,11111222' 
TCOON,ioos:station:TCOON:524:1,2019-10-03T21:24:00Z,29.8672,-93.9310,0.0,2.6,121.0,3.9,'11111222,11111222,11111222' 
TCOON,ioos:station:TCOON:524:1,2019-10-03T22:24:00Z,29.8672,-93.9310,0.0,3.5,133.0,4.8,'11111222,11111222,11111222' 
TCOON,ioos:station:TCOON:524:1,2019-10-03T23:24:00Z,29.8672,-93.9310,0.0,4.3,134.0,5.4,'11111222,11111222,11111222' 
TCOON,ioos:station:TCOON:524:1,2019-10-04T00:24:00Z,29.8672,-93.9310,0.0,2.2,123.0,3.4,'11111222,11111222,11111222' 
TCOON,ioos:station:TCOON:524:1,2019-10-04T01:24:00Z,29.8672,-93.9310,0.0,1.5,127.0,2.4,'11111222,11111222,11111222' 
TCOON,ioos:station:TCOON:524:1,2019-10-04T02:24:00Z,29.8672,-93.9310,0.0,1.5,132.0,2.5,'11111222,11111222,11111222' 
TCOON,ioos:station:TCOON:524:1,2019-10-04T03:24:00Z,29.8672,-93.9310,0.0,2.3,315.0,3.3,'11111222,11111222,11111222' 
TCOON,ioos:station:TCOON:524:1,2019-10-04T04:24:00Z,29.8672,-93.9310,0.0,0.6,62.0,2.0,'11111222,11111222,11111222' 
TCOON,ioos:station:TCOON:524:1,2019-10-04T05:24:00Z,29.8672,-93.9310,0.0,1.5,1.0,1.8,'11111222,11111222,11111222' 
TCOON,ioos:station:TCOON:524:1,2019-10-04T06:24:00Z,29.8672,-93.9310,0.0,1.6,3.0,2.3,'11111222,11111222,11111222' 
TCOON,ioos:station:TCOON:524:1,2019-10-04T07:24:00Z,29.8672,-93.9310,0.0,2.8,12.0,4.1,'11111222,11111222,11111222' 
TCOON,ioos:station:TCOON:524:1,2019-10-04T08:24:00Z,29.8672,-93.9310,0.0,2.2,27.0,3.6,'11111222,11111222,11111222' 
TCOON,ioos:station:TCOON:524:1,2019-10-04T09:24:00Z,29.8672,-93.9310,0.0,0.9,44.0,3.5,'11111222,11111222,11111222' 
TCOON,ioos:station:TCOON:524:1,2019-10-04T10:24:00Z,29.8672,-93.9310,0.0,1.8,25.0,2.9,'11111222,11111222,11111222' 
TCOON,ioos:station:TCOON:524:1,2019-10-04T11:24:00Z,29.8672,-93.9310,0.0,0.9,35.0,2.5,'11111222,11111222,11111222' 
TCOON,ioos:station:TCOON:524:1,2019-10-04T12:30:00Z,29.8672,-93.9310,0.0,0.8,38.0,1.2,'11111222,11111222,11111222' 
TCOON,ioos:station:TCOON:524:1,2019-10-04T13:30:00Z,29.8672,-93.9310,0.0,2.8,61.0,4.4,'11111222,11111222,11111222' 
TCOON,ioos:station:TCOON:524:1,2019-10-04T14:30:00Z,29.8672,-93.9310,0.0,1.1,45.0,3.4,'11111222,11111222,11111222' 
TCOON,ioos:station:TCOON:524:1,2019-10-04T15:30:00Z,29.8672,-93.9310,0.0,1.7,49.0,3.4,'11111222,11111222,11111222' 
TCOON,ioos:station:TCOON:524:1,2019-10-04T16:30:00Z,29.8672,-93.9310,0.0,2.4,94.0,3.2,'11111222,11111222,11111222' 
TCOON,ioos:station:TCOON:524:1,2019-10-04T17:42:00Z,29.8672,-93.9310,0.0,2.5,82.0,3.7,'11111222,11111222,11111222' 
TCOON,ioos:station:TCOON:524:1,2019-10-04T18:42:00Z,29.8672,-93.9310,0.0,2.1,75.0,3.3,'11111222,11111222,11111222' 
TCOON,ioos:station:TCOON:524:1,2019-10-04T19:42:00Z,29.8672,-93.9310,0.0,1.8,60.0,3.4,'11111222,11111222,11111222' 
TCOON,ioos:station:TCOON:524:1,2019-10-04T20:36:00Z,29.8672,-93.9310,0.0,1.9,82.0,3.2,'11111222,11111222,11111222' 
TCOON,ioos:station:TCOON:524:1,2019-10-04T21:30:00Z,29.8672,-93.9310,0.0,1.4,83.0,1.9,'11111222,11111222,11111222' 
TCOON,ioos:station:TCOON:524:1,2019-10-04T22:30:00Z,29.8672,-93.9310,0.0,1.0,106.0,1.8,'11111222,11111222,11111222' 
TCOON,ioos:station:TCOON:524:1,2019-10-04T23:30:00Z,29.8672,-93.9310,0.0,2.2,191.0,3.1,'11111222,11111222,11111222' 
TCOON,ioos:station:TCOON:524:1,2019-10-05T00:30:00Z,29.8672,-93.9310,0.0,1.6,169.0,2.1,'11111222,11111222,11111222' 
TCOON,ioos:station:TCOON:524:1,2019-10-05T01:24:00Z,29.8672,-93.9310,0.0,1.8,278.0,2.0,'11111222,11111222,11111222' 
TCOON,ioos:station:TCOON:524:1,2019-10-05T02:24:00Z,29.8672,-93.9310,0.0,0.4,170.0,0.9,'11111222,11111222,11111222' 
TCOON,ioos:station:TCOON:524:1,2019-10-05T03:24:00Z,29.8672,-93.9310,0.0,2.9,38.0,8.2,'11111222,11111222,11111222' 
TCOON,ioos:station:TCOON:524:1,2019-10-05T04:24:00Z,29.8672,-93.9310,0.0,0.7,41.0,1.2,'11111222,11111222,11111222' 
TCOON,ioos:station:TCOON:524:1,2019-10-05T05:24:00Z,29.8672,-93.9310,0.0,1.6,32.0,2.7,'11111222,11111222,11111222' 
TCOON,ioos:station:TCOON:524:1,2019-10-05T06:24:00Z,29.8672,-93.9310,0.0,1.1,37.0,2.8,'11111222,11111222,11111222' 
TCOON,ioos:station:TCOON:524:1,2019-10-05T07:24:00Z,29.8672,-93.9310,0.0,1.8,39.0,3.8,'11111222,11111222,11111222' 
TCOON,ioos:station:TCOON:524:1,2019-10-05T08:24:00Z,29.8672,-93.9310,0.0,2.3,64.0,3.7,'11111222,11111222,11111222' 
TCOON,ioos:station:TCOON:524:1,2019-10-05T09:24:00Z,29.8672,-93.9310,0.0,3.2,62.0,5.2,'11111222,11111222,11111222' 
TCOON,ioos:station:TCOON:524:1,2019-10-05T10:24:00Z,29.8672,-93.9310,0.0,1.0,32.0,2.4,'11111222,11111222,11111222' 
TCOON,ioos:station:TCOON:524:1,2019-10-05T11:24:00Z,29.8672,-93.9310,0.0,1.7,71.0,2.4,'11111222,11111222,11111222' 
TCOON,ioos:station:TCOON:524:1,2019-10-05T12:24:00Z,29.8672,-93.9310,0.0,1.4,15.0,2.1,'11111222,11111222,11111222' 
TCOON,ioos:station:TCOON:524:1,2019-10-05T13:24:00Z,29.8672,-93.9310,0.0,2.3,26.0,3.2,'11111222,11111222,11111222' 
TCOON,ioos:station:TCOON:524:1,2019-10-05T14:24:00Z,29.8672,-93.9310,0.0,1.5,23.0,2.2,'11111222,11111222,11111222' 
TCOON,ioos:station:TCOON:524:1,2019-10-05T15:24:00Z,29.8672,-93.9310,0.0,3.0,76.0,4.5,'11111222,11111222,11111222' 
TCOON,ioos:station:TCOON:524:1,2019-10-05T16:24:00Z,29.8672,-93.9310,0.0,2.4,105.0,3.7,'11111222,11111222,11111222' 
TCOON,ioos:station:TCOON:524:1,2019-10-05T17:24:00Z,29.8672,-93.9310,0.0,2.7,107.0,3.8,'11111222,11111222,11111222' 
TCOON,ioos:station:TCOON:524:1,2019-10-05T18:24:00Z,29.8672,-93.9310,0.0,2.6,96.0,3.4,'11111222,11111222,11111222' 
TCOON,ioos:station:TCOON:524:1,2019-10-05T19:24:00Z,29.8672,-93.9310,0.0,3.0,82.0,3.5,'11111222,11111222,11111222' 
TCOON,ioos:station:TCOON:524:1,2019-10-05T20:30:00Z,29.8672,-93.9310,0.0,2.3,130.0,3.0,'11111222,11111222,11111222' 
TCOON,ioos:station:TCOON:524:1,2019-10-05T21:30:00Z,29.8672,-93.9310,0.0,2.2,111.0,2.8,'11111222,11111222,11111222' 
TCOON,ioos:station:TCOON:524:1,2019-10-05T22:24:00Z,29.8672,-93.9310,0.0,1.7,112.0,2.8,'11111222,11111222,11111222' 
TCOON,ioos:station:TCOON:524:1,2019-10-05T23:24:00Z,29.8672,-93.9310,0.0,1.4,158.0,2.6,'11111222,11111222,11111222' 
TCOON,ioos:station:TCOON:524:1,2019-10-06T00:24:00Z,29.8672,-93.9310,0.0,2.2,180.0,3.4,'11111222,11111222,11111222' 
TCOON,ioos:station:TCOON:524:1,2019-10-06T01:24:00Z,29.8672,-93.9310,0.0,1.3,180.0,2.2,'11111222,11111222,11111222' 
TCOON,ioos:station:TCOON:524:1,2019-10-06T02:24:00Z,29.8672,-93.9310,0.0,1.2,201.0,1.5,'11111222,11111222,11111222' 
TCOON,ioos:station:TCOON:524:1,2019-10-06T03:24:00Z,29.8672,-93.9310,0.0,0.9,182.0,1.6,'11111222,11111222,11111222' 
TCOON,ioos:station:TCOON:524:1,2019-10-06T04:24:00Z,29.8672,-93.9310,0.0,1.0,176.0,1.5,'11111222,11111222,11111222' 
TCOON,ioos:station:TCOON:524:1,2019-10-06T05:24:00Z,29.8672,-93.9310,0.0,1.3,164.0,1.8,'11111222,11111222,11111222' 
TCOON,ioos:station:TCOON:524:1,2019-10-06T06:24:00Z,29.8672,-93.9310,0.0,1.3,170.0,1.9,'11111222,11111222,11111222' 
TCOON,ioos:station:TCOON:524:1,2019-10-06T07:24:00Z,29.8672,-93.9310,0.0,1.5,157.0,2.2,'11111222,11111222,11111222' 
TCOON,ioos:station:TCOON:524:1,2019-10-06T08:24:00Z,29.8672,-93.9310,0.0,1.0,155.0,2.0,'11111222,11111222,11111222' 
TCOON,ioos:station:TCOON:524:1,2019-10-06T09:24:00Z,29.8672,-93.9310,0.0,0.7,128.0,1.4,'11111222,11111222,11111222' 
TCOON,ioos:station:TCOON:524:1,2019-10-06T10:24:00Z,29.8672,-93.9310,0.0,1.2,95.0,2.3,'11111222,11111222,11111222' 
TCOON,ioos:station:TCOON:524:1,2019-10-06T11:24:00Z,29.8672,-93.9310,0.0,1.3,80.0,2.8,'11111222,11111222,11111222' 
TCOON,ioos:station:TCOON:524:1,2019-10-06T12:24:00Z,29.8672,-93.9310,0.0,2.0,70.0,3.1,'11111222,11111222,11111222' 
TCOON,ioos:station:TCOON:524:1,2019-10-06T13:30:00Z,29.8672,-93.9310,0.0,2.1,63.0,4.0,'11111222,11111222,11111222' 
TCOON,ioos:station:TCOON:524:1,2019-10-06T14:24:00Z,29.8672,-93.9310,0.0,2.8,78.0,4.0,'11111222,11111222,11111222' 
TCOON,ioos:station:TCOON:524:1,2019-10-06T15:24:00Z,29.8672,-93.9310,0.0,3.4,68.0,4.7,'11111222,11111222,11111222' 
TCOON,ioos:station:TCOON:524:1,2019-10-06T16:24:00Z,29.8672,-93.9310,0.0,1.9,65.0,4.4,'11111222,11111222,11111222' 
TCOON,ioos:station:TCOON:524:1,2019-10-06T17:30:00Z,29.8672,-93.9310,0.0,3.2,76.0,4.6,'11111222,11111222,11111222' 
TCOON,ioos:station:TCOON:524:1,2019-10-06T18:30:00Z,29.8672,-93.9310,0.0,2.6,75.0,3.8,'11111222,11111222,11111222' 
TCOON,ioos:station:TCOON:524:1,2019-10-06T19:30:00Z,29.8672,-93.9310,0.0,1.8,64.0,3.7,'11111222,11111222,11111222' 
TCOON,ioos:station:TCOON:524:1,2019-10-06T20:30:00Z,29.8672,-93.9310,0.0,2.4,79.0,4.0,'11111222,11111222,11111222' 
TCOON,ioos:station:TCOON:524:1,2019-10-06T21:30:00Z,29.8672,-93.9310,0.0,2.2,90.0,3.0,'11111222,11111222,11111222' 
TCOON,ioos:station:TCOON:524:1,2019-10-06T22:30:00Z,29.8672,-93.9310,0.0,4.0,131.0,5.4,'11111222,11111222,11111222' 
TCOON,ioos:station:TCOON:524:1,2019-10-06T23:24:00Z,29.8672,-93.9310,0.0,3.0,134.0,4.1,'11111222,11111222,11111222' 
TCOON,ioos:station:TCOON:524:1,2019-10-07T00:24:00Z,29.8672,-93.9310,0.0,2.1,132.0,3.5,'11111222,11111222,11111222' 
TCOON,ioos:station:TCOON:524:1,2019-10-07T01:24:00Z,29.8672,-93.9310,0.0,3.0,121.0,4.9,'11111222,11111222,11111222' 
TCOON,ioos:station:TCOON:524:1,2019-10-07T02:24:00Z,29.8672,-93.9310,0.0,2.6,122.0,3.4,'11111222,11111222,11111222' 
TCOON,ioos:station:TCOON:524:1,2019-10-07T03:24:00Z,29.8672,-93.9310,0.0,2.2,101.0,2.8,'11111222,11111222,11111222' 
TCOON,ioos:station:TCOON:524:1,2019-10-07T04:24:00Z,29.8672,-93.9310,0.0,1.6,109.0,2.6,'11111222,11111222,11111222' 
TCOON,ioos:station:TCOON:524:1,2019-10-07T05:24:00Z,29.8672,-93.9310,0.0,2.5,98.0,4.1,'11111222,11111222,11111222' 
TCOON,ioos:station:TCOON:524:1,2019-10-07T06:24:00Z,29.8672,-93.9310,0.0,2.5,112.0,3.9,'11111222,11111222,11111222' 
TCOON,ioos:station:TCOON:524:1,2019-10-07T07:24:00Z,29.8672,-93.9310,0.0,2.7,104.0,4.4,'11111222,11111222,11111222' 
TCOON,ioos:station:TCOON:524:1,2019-10-07T08:24:00Z,29.8672,-93.9310,0.0,2.3,88.0,3.4,'11111222,11111222,11111222' 
TCOON,ioos:station:TCOON:524:1,2019-10-07T09:24:00Z,29.8672,-93.9310,0.0,1.2,15.0,2.3,'11111222,11111222,11111222' 
TCOON,ioos:station:TCOON:524:1,2019-10-07T10:24:00Z,29.8672,-93.9310,0.0,2.2,355.0,2.5,'11111222,11111222,11111222' 
TCOON,ioos:station:TCOON:524:1,2019-10-07T11:24:00Z,29.8672,-93.9310,0.0,1.8,16.0,2.9,'11111222,11111222,11111222' 
TCOON,ioos:station:TCOON:524:1,2019-10-07T12:30:00Z,29.8672,-93.9310,0.0,2.6,349.0,3.3,'11111222,11111222,11111222' 
TCOON,ioos:station:TCOON:524:1,2019-10-07T14:48:00Z,29.8672,-93.9310,0.0,3.1,0.0,3.7,'11111222,11111222,11111222' 
TCOON,ioos:station:TCOON:524:1,2019-10-07T15:30:00Z,29.8672,-93.9310,0.0,4.5,0.0,5.5,'11111222,11111222,11111222' 
TCOON,ioos:station:TCOON:524:1,2019-10-07T16:30:00Z,29.8672,-93.9310,0.0,3.8,2.0,7.1,'11111222,11111222,11111222' 
TCOON,ioos:station:TCOON:524:1,2019-10-07T17:30:00Z,29.8672,-93.9310,0.0,3.4,6.0,4.4,'11111222,11111222,11111222' 
TCOON,ioos:station:TCOON:524:1,2019-10-07T18:30:00Z,29.8672,-93.9310,0.0,2.4,3.0,4.9,'11111222,11111222,11111222' 
TCOON,ioos:station:TCOON:524:1,2019-10-07T19:30:00Z,29.8672,-93.9310,0.0,8.1,359.0,12.8,'11111222,11111222,11111222' 
TCOON,ioos:station:TCOON:524:1,2019-10-07T20:30:00Z,29.8672,-93.9310,0.0,2.7,46.0,4.8,'11111222,11111222,11111222' 
TCOON,ioos:station:TCOON:524:1,2019-10-07T21:30:00Z,29.8672,-93.9310,0.0,2.7,49.0,4.9,'11111222,11111222,11111222' 
TCOON,ioos:station:TCOON:524:1,2019-10-07T22:30:00Z,29.8672,-93.9310,0.0,1.3,27.0,2.3,'11111222,11111222,11111222' 
TCOON,ioos:station:TCOON:524:1,2019-10-07T23:24:00Z,29.8672,-93.9310,0.0,3.4,352.0,4.3,'11111222,11111222,11111222' 
TCOON,ioos:station:TCOON:524:1,2019-10-08T00:24:00Z,29.8672,-93.9310,0.0,4.4,358.0,5.3,'11111222,11111222,11111222' 
TCOON,ioos:station:TCOON:524:1,2019-10-08T01:24:00Z,29.8672,-93.9310,0.0,4.9,16.0,8.1,'11111222,11111222,11111222' 
TCOON,ioos:station:TCOON:524:1,2019-10-08T02:24:00Z,29.8672,-93.9310,0.0,6.6,7.0,8.7,'11111222,11111222,11111222' 
TCOON,ioos:station:TCOON:524:1,2019-10-08T03:24:00Z,29.8672,-93.9310,0.0,5.3,17.0,8.1,'11111222,11111222,11111222' 
TCOON,ioos:station:TCOON:524:1,2019-10-08T04:24:00Z,29.8672,-93.9310,0.0,5.0,16.0,7.8,'11111222,11111222,11111222' 
TCOON,ioos:station:TCOON:524:1,2019-10-08T05:24:00Z,29.8672,-93.9310,0.0,3.7,19.0,5.4,'11111222,11111222,11111222' 
TCOON,ioos:station:TCOON:524:1,2019-10-08T06:24:00Z,29.8672,-93.9310,0.0,4.4,24.0,6.3,'11111222,11111222,11111222' 
TCOON,ioos:station:TCOON:524:1,2019-10-08T07:24:00Z,29.8672,-93.9310,0.0,4.2,7.0,6.1,'11111222,11111222,11111222' 
TCOON,ioos:station:TCOON:524:1,2019-10-08T08:24:00Z,29.8672,-93.9310,0.0,3.8,16.0,5.4,'11111222,11111222,11111222' 
TCOON,ioos:station:TCOON:524:1,2019-10-08T09:24:00Z,29.8672,-93.9310,0.0,3.4,358.0,4.7,'11111222,11111222,11111222' 
TCOON,ioos:station:TCOON:524:1,2019-10-08T10:24:00Z,29.8672,-93.9310,0.0,3.0,18.0,4.8,'11111222,11111222,11111222' 
TCOON,ioos:station:TCOON:524:1,2019-10-08T11:24:00Z,29.8672,-93.9310,0.0,4.6,350.0,6.3,'11111222,11111222,11111222' 
TCOON,ioos:station:TCOON:524:1,2019-10-08T12:30:00Z,29.8672,-93.9310,0.0,3.1,358.0,3.7,'11111222,11111222,11111222' 
TCOON,ioos:station:TCOON:524:1,2019-10-08T13:30:00Z,29.8672,-93.9310,0.0,2.5,9.0,4.2,'11111222,11111222,11111222' 
TCOON,ioos:station:TCOON:524:1,2019-10-08T14:36:00Z,29.8672,-93.9310,0.0,3.3,3.0,4.8,'11111222,11111222,11111222' 
TCOON,ioos:station:TCOON:524:1,2019-10-08T15:36:00Z,29.8672,-93.9310,0.0,1.8,5.0,3.8,'11111222,11111222,11111222' 
TCOON,ioos:station:TCOON:524:1,2019-10-08T16:36:00Z,29.8672,-93.9310,0.0,1.1,67.0,3.7,'11111222,11111222,11111222' 
TCOON,ioos:station:TCOON:524:1,2019-10-08T17:30:00Z,29.8672,-93.9310,0.0,1.1,54.0,4.2,'11111222,11111222,11111222' 
TCOON,ioos:station:TCOON:524:1,2019-10-08T18:48:00Z,29.8672,-93.9310,0.0,3.1,87.0,4.6,'11111222,11111222,11111222' 
TCOON,ioos:station:TCOON:524:1,2019-10-08T19:54:00Z,29.8672,-93.9310,0.0,2.6,87.0,3.8,'11111222,11111222,11111222' 
TCOON,ioos:station:TCOON:524:1,2019-10-08T20:36:00Z,29.8672,-93.9310,0.0,2.0,77.0,3.8,'11111222,11111222,11111222' 
TCOON,ioos:station:TCOON:524:1,2019-10-08T21:30:00Z,29.8672,-93.9310,0.0,3.0,83.0,4.0,'11111222,11111222,11111222' 
TCOON,ioos:station:TCOON:524:1,2019-10-08T22:30:00Z,29.8672,-93.9310,0.0,2.5,71.0,4.5,'11111222,11111222,11111222' 
TCOON,ioos:station:TCOON:524:1,2019-10-08T23:24:00Z,29.8672,-93.9310,0.0,0.8,41.0,1.8,'11111222,11111222,11111222' 
TCOON,ioos:station:TCOON:524:1,2019-10-09T00:24:00Z,29.8672,-93.9310,0.0,1.0,37.0,1.9,'11111222,11111222,11111222' 
TCOON,ioos:station:TCOON:524:1,2019-10-09T01:24:00Z,29.8672,-93.9310,0.0,0.9,121.0,1.8,'11111222,11111222,11111222' 
TCOON,ioos:station:TCOON:524:1,2019-10-09T02:36:00Z,29.8672,-93.9310,0.0,0.6,42.0,1.3,'11111222,11111222,11111222' 
TCOON,ioos:station:TCOON:524:1,2019-10-09T03:24:00Z,29.8672,-93.9310,0.0,1.2,28.0,1.5,'11111222,11111222,11111222' 
TCOON,ioos:station:TCOON:524:1,2019-10-09T04:24:00Z,29.8672,-93.9310,0.0,0.8,29.0,1.3,'11111222,11111222,11111222' 
TCOON,ioos:station:TCOON:524:1,2019-10-09T05:24:00Z,29.8672,-93.9310,0.0,0.6,48.0,1.3,'11111222,11111222,11111222' 
TCOON,ioos:station:TCOON:524:1,2019-10-09T06:24:00Z,29.8672,-93.9310,0.0,0.5,48.0,1.4,'11111222,11111222,11111222' 
TCOON,ioos:station:TCOON:524:1,2019-10-09T07:24:00Z,29.8672,-93.9310,0.0,1.3,87.0,3.3,'11111222,11111222,11111222' 
TCOON,ioos:station:TCOON:524:1,2019-10-09T08:24:00Z,29.8672,-93.9310,0.0,1.9,90.0,3.0,'11111222,11111222,11111222' 
TCOON,ioos:station:TCOON:524:1,2019-10-09T09:24:00Z,29.8672,-93.9310,0.0,1.2,53.0,2.8,'11111222,11111222,11111222' 
TCOON,ioos:station:TCOON:524:1,2019-10-09T10:30:00Z,29.8672,-93.9310,0.0,2.7,63.0,3.8,'11111222,11111222,11111222' 
TCOON,ioos:station:TCOON:524:1,2019-10-09T11:30:00Z,29.8672,-93.9310,0.0,1.2,48.0,3.4,'11111222,11111222,11111222' 
TCOON,ioos:station:TCOON:524:1,2019-10-09T12:30:00Z,29.8672,-93.9310,0.0,0.9,52.0,2.0,'11111222,11111222,11111222' 
TCOON,ioos:station:TCOON:524:1,2019-10-09T13:30:00Z,29.8672,-93.9310,0.0,2.7,73.0,4.9,'11111222,11111222,11111222' 